Flag for U.S.A. Weather past 2 weeks in Downey, California, U.S.A.

Now
77 °F

Sunny.


Feels Like: 78 °F
Forecast: 57 / 80 °F
Wind: 5 mph from Northwest

Location: Long Beach Airport

Current Time: Mar 29, 2015 at 6:50:03 PM

Latest Report: Mar 29, 2015 at 5:53 PM


Visibility: 10 mi

Pressure: 29.96 "Hg

Humidity: 37%

Dew point: 49 °F

Location of DowneyLocation

Historic Weather in Downey — Graph

°F

Downey temperature yesterday

Maximum temperature yesterday: 79 °F (at 4:53 PM)
Minimum temperature yesterday: 60 °F (at 3:53 AM)
Average temperature yesterday: 67 °F

Past Weeks' High & Low Weather Summary

 TemperatureHumidityPressure
High93 °F (Mar 26, 12:53 PM)93% (Mar 28, 3:53 AM)30.19 "Hg (Mar 28, 3:53 AM)
Low57 °F (Mar 24, 4:53 AM)10% (Mar 26, 12:53 PM)29.86 "Hg (Mar 16, 5:53 PM)
Average68 °F61%30.03 "Hg
* Reported Mar 14 4:53 PM — Mar 29 4:53 PM, Downey, Weather by CustomWeather, © 2015

Note: Actual official high and low records may vary slightly from our data, if they occured in-between our weather recording intervals... More about our weather records

Advertising

Downey weather history for previous 24 hours

 ConditionsComfort  
Time TempWeatherWind HumidityBarometerVisibility
4:53 PM
Sun, Mar 29
78 °FSunny.6 mph31%29.96 "Hg10 mi
3:53 PM77 °FSunny.8 mph36%29.96 "Hg10 mi
2:53 PM76 °FSunny.8 mph45%29.98 "Hg10 mi
1:53 PM75 °FSunny.8 mph50%30.01 "Hg10 mi
12:53 PM74 °FSunny.8 mph56%30.03 "Hg10 mi
11:53 AM73 °FSunny.7 mph57%30.04 "Hg10 mi
10:53 AM73 °FSunny.8 mph57%30.05 "Hg10 mi
9:53 AM67 °FSunny.3 mph68%30.05 "Hg9 mi
8:53 AM63 °FPassing clouds.No wind81%30.05 "Hg7 mi
7:53 AM60 °FFog.5 mph86%30.05 "Hg5 mi
6:53 AM60 °FLow clouds.No wind86%30.05 "Hg8 mi
5:53 AM59 °FFog.No wind93%30.04 "Hg4 mi
5:00 AM60 °FFog.No wind93%30.03 "Hg5 mi
4:53 AM60 °FFog.No wind93%30.03 "Hg5 mi
3:53 AM60 °FClear.No wind86%30.02 "Hg7 mi
2:53 AM60 °FClear.No wind86%30.02 "Hg8 mi
1:53 AM61 °FClear.No wind87%30.03 "Hg8 mi
12:53 AM62 °FClear.3 mph83%30.04 "Hg9 mi
11:53 PM
Sat, Mar 28
62 °FClear.3 mph83%30.04 "Hg8 mi
10:53 PM63 °FClear.5 mph81%30.04 "Hg9 mi
9:53 PM64 °FClear.3 mph78%30.03 "Hg10 mi
8:53 PM64 °FClear.5 mph78%30.03 "Hg10 mi
7:53 PM66 °FSunny.7 mph70%30.01 "Hg10 mi
6:53 PM70 °FSunny.9 mph61%29.99 "Hg10 mi
Weather by CustomWeather, © 2015

See weather overviewHow to use our weather pages